Probability
0 0 0 0 0 0 0 0 0 0 0 0 0 0 0 0 0 0 0 0 0 0 0 0 0 0 0 0 0 0 0 0 0 0 0 0 0 0 0 0 0 0 0
0 0 0 0 0 0 0 0 0 0 0 0 0 0 0 0 0 0 0 0 0 0 0 0 0 0 0 0 0 0 0 0 0 0 0 0 0 0 0 0 0 0 0
0 0 0 0 0 0 0 0 0 0 0 0 0 0 0 0 0 0 0 0 0 0 0 0 0 0 0 0 0 0 0 0 0 0 0 0 0 0 0 0 0 0 0
0 0 0 0 0 0 0 0 0 0 0 0 0 0 0 0 0 0 0 0 0 0 0 0 0 0 0 0 0 0 0 0 0 0 0 0 0 0 0 0 0 0 0
0 0 0 0 0 0 0 0 0 0 0 0 0 0 0 0 0 0 0 0 0 0 0 0 0 0 0 0 0 0 0 0 0 0 0 0 0 0 0 0 0 0 0
0 0 0 0 0 0 0 0 0 0 0 0 0 0 0 0 0 0 0 0 0 0 0 0 0 0 0 0 0 0 0 0 0 0 0 0 0 0 0 0 0 0 0
0 0 0 0 0 0 0 0 0 0 0 0 0 0 0 0 0 0 0 0 0 0 0 0 0 0 0 0 0 0 0 0 0 0 0 0 0 0 0 0 0 0 0
0 0 0 0 0 0 0 0 0 0 0 0 0 0 0 0 0 0 0 0 0 0 0 0 0 0 0 0 0 0 0 0 0 0 0 0 0 0 0 0 0 0 0
0 0 0 0 0 0 0 0 0 0 0 0 0 0 0 0 0 0 0 0 0 0 0 0 0 0 0 0 0 0 0 0 0 0 0 0 0 0 0 0 0 0 0
0 0 0 0 0 0 0 0 0 0 0 0 0 0 0 0 0 0 0 0 0 0 0 0 0 0 0 0 0 0 0 0 0 0 0 0 0 0 0 0 0 0 0
0 0 0 0 0 0 0 0 0 0 0 0 0 0 0 0 0 0 0 0 0 0 0 0 0 0 0 0 0 0 0 0 0 0 0 0 0 0 0 0 0 0 0
0 0 0 0 0 0 0 0 0 0 0 0 0 0 0 0 0 0 0 0 0 0 0 0 0 0 0 0 0 0 0 0 0 0 0 0 0 0 0 0 0 0 0
0 0 0 0 0 0 0 0 0 0 0 0 0 0 0 0 0 0 0 0 0 0 0 0 0 0 0 0 0 0 0 0 0 0 0 0 0 0 0 0 0 0 0
0 0 0 0 0 0 0 0 0 0 0 0 0 0 0 0 0 0 0 0 0 0 0 0 0 0 0 0 0 0 0 0 0 0 0 0 0 0 0 0 0 0 0
0 0 0 0 0 0 0 0 0 0 0 0 0 0 0 0 0 0 0 0 0 0 0 0 0 0 0 0 0 0 0 0 0 0 0 0 0 0 0 0 0 0 0
0 0 0 0 0 0 0 0 0 0 0 0 0 0 0 0 0 0 0 0 0 0 0 0 0 0 0 0 0 0 0 0 0 0 0 0 0 0 0 0 0 0 0
0 0 0 0 0 0 0 0 0 0 0 0 0 0 0 0 0 0 0 0 0 0 0 0 0 0 0 0 0 0 0 0 0 0 0 0 0 0 0 0 0 0 0
0 0 0 0 0 0 0 0 0 0 0 0 0 0 0 0 0 0 0 0 0 0 0 0 0 0 0 0 0 0 0 0 0 0 0 0 0 0 0 0 0 0 0
0 0 0 0 0 0 0 0 0 0 0 0 0 0 0 0 0 0 0 0 0 0 0 0 0 0 0 0 0 0 0 0 0 0 0 0 0 0 0 0 0 0 0
0 0 0 0 0 0 0 0 0 0 0 0 0 0 0 0 0 0 0 0 0 0 0 0 0 0 0 0 0 0 0 0 0 0 0 0 0 0 0 0 0 0 0
0 0 0 0 0 0 0 0 0 0 0 0 0 0 0 0 0 0 0 0 0 0 0 0 0 0 0 0 0 0 0 0 0 0 0 0 0 0 0 0 0 0 0
0 0 0 0 0 0 0 0 0 0 0 0 0 0 0 0 0 0 0 0 0 0 0 0 0 0 0 0 0 0 0 0 0 0 0 0 0 0 0 0 0 0 0
0 0 0 0 0 0 0 0 0 0 0 0 0 0 0 0 0 0 0 0 0 0 0 0 0 0 0 0 0 0 0 0 0 0 0 0 0 0 0 0 0 0 0
0 0 0 0 0 0 0 0 0 0 0 0 0 0 0 0 0 0 0 0 0 0 0 0 0 0 0 0 0 0 0 0 0 0 0 0 0 0 0 0 0 0 0
0 0 0 0 0 0 0 0 0 0 0 0 0 0 0 0 0 0 0 0 0 0 0 0 0 0 0 0 0 0 0 0 0 0 0 0 0 0 0 0 0 0 0
0 0 0 0 0 0 0 0 0 0 0 0 0 0 0 0 0 0 0 0 0 0 0 0 0 0 0 0 0 0 0 0 0 0 0 0 0 0 0 0 0 0 0
Wind_Speed
14 13 13 13 13 13 13 14 15 15 15 16 16 17 16 16 15 13 13 12 11 6 1 3 3 0 1 1 3 4 3 4 3 3 1 0 1 1 2 2 2 4 6
13 13 13 13 14 14 14 15 15 15 15 16 16 16 16 15 15 14 12 10 8 3 4 5 7 6 4 3 1 4 5 4 4 3 2 1 1 0 2 2 2 2 4
12 12 12 13 14 14 15 15 16 16 16 16 15 16 17 15 14 16 16 12 8 4 2 3 3 3 3 2 3 3 2 3 2 3 2 1 1 1 2 3 3 2 1
12 12 12 13 14 14 14 15 15 16 16 16 14 14 16 15 11 14 16 15 12 11 9 7 5 1 1 3 3 2 1 2 2 3 2 2 1 2 2 2 3 3 3
12 12 12 13 13 13 14 15 14 14 15 16 14 13 14 14 11 13 12 13 13 12 10 8 8 12 10 5 3 1 1 1 2 3 3 2 1 2 2 1 3 4 4
12 12 13 13 13 13 14 15 14 14 15 15 15 13 13 12 19 20 13 9 10 10 10 10 10 13 15 17 18 15 12 6 2 2 3 3 2 3 2 2 4 4 3
12 12 13 13 14 14 13 14 14 14 14 14 14 13 13 14 23 20 15 7 8 9 9 9 8 10 12 13 19 21 21 21 16 8 6 5 4 3 2 2 3 3 4
11 12 12 13 13 14 13 13 13 12 11 11 12 13 13 15 25 22 12 6 7 8 8 7 7 8 9 12 11 11 13 14 14 11 9 7 6 5 5 4 5 7 8
11 12 12 12 13 13 13 13 13 12 11 11 10 11 12 14 23 24 11 4 4 6 7 6 7 7 15 16 12 12 12 13 18 23 23 21 21 17 11 6 6 4 5
12 13 12 12 12 11 12 12 12 12 12 12 11 10 13 13 20 23 14 4 6 6 7 8 12 15 20 20 12 11 11 10 9 11 14 16 15 16 18 12 6 4 4
12 12 12 12 11 10 11 10 11 11 11 11 11 11 11 13 16 21 19 7 5 5 6 7 8 19 22 22 16 10 10 9 9 8 9 9 9 9 9 9 8 6 5
12 12 12 12 11 9 9 10 10 10 9 9 9 10 10 12 16 20 19 14 8 4 4 4 8 20 22 20 15 16 16 12 7 7 8 8 8 8 7 7 8 8 8
12 13 12 12 11 8 8 8 8 8 8 8 8 8 9 10 12 19 18 18 15 5 1 6 13 17 17 14 18 19 14 8 7 7 8 8 7 6 6 5 6 6 8
13 13 13 12 12 8 7 7 7 7 8 8 6 7 8 9 9 8 7 8 13 6 5 10 14 13 13 12 11 10 7 7 7 7 7 6 6 6 6 6 6 5 4
14 14 12 11 11 10 8 8 8 8 10 10 7 6 7 9 14 15 11 9 11 8 8 6 5 6 6 6 6 6 6 6 7 7 7 7 7 7 6 6 6 6 5
13 12 12 11 10 10 10 10 14 15 18 19 16 12 9 14 20 16 16 17 15 14 8 6 6 6 6 6 5 5 6 6 6 6 6 6 5 4 4 4 5 4 4
13 14 12 11 11 11 10 10 10 10 13 16 15 14 14 15 16 15 15 14 14 11 6 5 5 5 4 4 3 3 2 3 3 3 3 3 3 3 4 4 4 4 3
14 17 13 10 10 10 10 8 6 6 7 8 10 12 11 13 12 11 11 8 6 5 4 3 4 4 4 4 3 3 3 2 2 2 1 1 2 2 2 3 2 2 2
13 11 11 9 9 11 10 8 6 6 6 5 6 7 9 10 8 7 6 3 1 2 2 2 2 2 2 2 2 3 2 3 2 1 1 1 1 1 1 1 2 4 3
12 17 15 9 9 9 8 8 7 6 5 5 4 4 4 4 2 1 0 0 0 1 2 2 3 2 2 1 2 2 2 3 2 1 2 2 2 1 2 2 2 2 2
9 11 15 10 9 9 9 8 7 5 5 5 4 6 9 3 1 2 1 2 1 2 2 3 3 3 3 3 2 2 3 3 3 3 3 3 3 2 3 3 3 3 3
9 9 10 10 10 10 9 9 7 6 5 4 3 5 9 4 1 1 2 3 3 3 3 3 3 3 3 3 3 3 3 4 4 4 4 4 4 3 3 3 3 4 4
8 10 11 11 11 13 12 10 9 8 4 3 3 3 3 2 2 2 2 3 3 3 3 2 3 4 3 3 4 4 4 5 5 5 4 4 4 4 4 4 5 5 6
9 11 11 11 12 11 11 10 10 11 8 5 3 2 2 2 2 3 3 3 3 3 3 3 3 4 5 4 4 4 5 6 6 7 8 7 7 7 7 6 7 8 7
9 10 11 11 10 9 10 10 9 9 8 7 6 4 3 3 3 3 3 3 3 3 3 3 3 3 6 7 7 7 10 15 13 9 7 8 9 9 8 8 8 8 9
10 11 10 9 8 8 8 8 8 8 8 7 6 5 4 3 4 4 4 3 3 3 4 3 4 5 6 7 9 13 16 16 12 8 2 1 3 5 6 7 9 9 9
Wind_Direction
337 334 333 331 332 331 328 325 324 321 320 321 322 319 321 322 317 306 287 265 258 234 135 26 36 288 130 182 135 135 130 125 142 158 160 202 90 131 107 84 100 101 125
334 333 333 332 332 332 329 326 323 320 320 322 325 327 329 335 343 343 333 312 280 232 90 55 28 7 21 7 251 158 139 141 131 145 173 161 109 134 103 121 139 137 135
334 333 332 332 332 330 328 327 326 325 323 325 330 335 335 340 358 2 360 356 346 353 45 96 52 1 321 36 17 23 68 116 121 133 150 187 140 92 85 76 68 59 74
334 332 331 331 330 327 327 329 329 328 327 326 333 339 337 336 1 15 6 5 5 21 18 28 21 57 182 75 55 34 16 118 136 130 139 183 168 99 93 113 112 84 54
333 332 331 329 327 327 329 333 332 332 331 331 330 342 343 338 354 28 13 3 359 15 11 22 25 30 44 87 108 91 93 138 155 148 144 170 144 102 112 114 117 98 55
330 328 328 329 329 330 331 334 334 335 335 335 334 340 343 336 353 25 28 6 357 9 12 16 20 24 34 50 66 69 66 62 77 114 132 121 65 41 57 89 115 117 116
329 326 326 327 329 331 334 336 334 334 336 337 335 337 338 338 352 8 29 17 14 17 16 16 23 26 34 40 47 49 53 55 58 59 69 78 79 30 8 77 78 81 99
328 326 326 328 328 330 335 337 333 332 333 334 332 336 336 344 349 3 32 26 29 24 19 24 32 31 52 57 50 43 42 44 53 59 67 75 80 63 43 53 75 94 79
329 328 327 328 329 332 338 335 335 334 335 336 335 336 339 345 349 354 25 16 18 15 9 20 64 50 61 61 54 47 42 38 45 56 57 57 60 60 54 53 54 95 104
328 327 325 326 327 331 336 330 332 334 338 337 338 343 343 343 347 355 28 15 23 17 8 12 46 65 66 64 57 53 48 46 51 53 53 47 44 46 50 49 40 52 74
321 322 322 323 321 332 333 326 327 329 333 334 341 345 343 342 344 352 7 33 44 42 25 14 37 69 62 57 55 57 64 59 55 54 55 48 41 36 37 43 44 43 51
316 315 316 316 315 321 324 321 324 325 328 328 340 345 342 340 341 345 0 23 49 67 55 32 54 65 62 58 55 53 54 52 46 50 51 45 40 32 25 32 43 59 62
312 309 306 306 307 305 315 315 318 321 323 321 340 343 335 334 333 338 358 16 8 18 339 117 86 70 61 52 51 52 48 43 47 53 54 47 38 36 24 30 41 60 70
307 306 304 302 305 302 303 302 305 306 308 311 332 331 325 324 323 333 357 354 0 9 59 82 75 69 67 58 53 50 45 50 52 53 55 51 40 41 30 19 34 30 66
304 305 304 303 300 293 290 292 295 295 296 312 320 316 315 317 317 342 360 1 14 33 84 71 60 61 58 59 58 53 51 48 52 49 42 43 39 33 30 17 29 30 42
302 304 304 305 304 304 302 295 291 299 313 320 319 317 316 319 326 348 9 0 25 43 51 46 46 46 50 47 47 49 47 49 45 50 51 48 40 22 31 30 39 34 39
301 302 305 309 308 302 299 295 297 304 314 318 321 320 317 322 337 356 20 15 27 40 43 43 35 30 25 24 25 29 32 39 40 42 46 39 32 18 26 33 30 25 24
304 308 312 304 297 297 301 305 299 303 317 318 321 323 317 322 341 15 37 33 25 33 31 33 29 21 17 10 6 4 4 7 26 34 24 13 5 355 2 23 13 360 0
307 308 310 308 312 319 322 316 305 298 300 300 306 316 323 325 339 19 41 59 18 349 351 357 353 349 347 347 348 353 349 332 346 347 317 293 270 278 305 326 318 317 337
307 315 326 329 325 321 315 309 300 293 289 286 286 292 297 306 302 324 11 228 38 299 303 303 303 299 293 280 283 300 309 312 321 295 274 265 259 239 241 244 252 267 267
315 325 333 330 320 315 309 303 298 290 281 281 279 286 288 276 217 210 252 281 273 276 276 276 278 282 287 279 260 251 255 270 265 251 256 261 253 235 241 238 241 249 257
332 326 326 327 322 321 327 327 321 312 298 292 290 301 324 5 61 269 278 281 280 271 266 269 277 268 261 266 267 261 252 251 254 250 244 244 241 235 233 234 239 237 243
329 331 335 335 336 346 354 355 348 341 327 292 289 299 308 322 327 318 310 310 309 305 299 280 277 281 275 252 237 234 247 253 242 229 230 235 234 233 224 228 229 231 235
335 338 338 337 344 359 357 354 352 354 1 2 351 332 308 295 300 311 312 309 307 306 304 294 278 278 287 282 261 243 239 253 245 234 227 225 229 236 232 230 233 232 235
340 338 337 338 348 359 353 353 352 358 5 6 7 1 343 316 307 311 311 306 303 302 299 295 287 293 292 290 285 279 279 282 275 260 239 229 233 227 227 234 239 238 235
341 336 334 336 353 1 353 350 349 350 358 0 359 353 344 328 313 308 310 311 307 301 296 291 289 291 292 288 288 293 300 305 311 317 347 327 270 245 234 232 236 236 235